Weather History for Branson West Muni - Emerson F, MO

Change the Weather History Date:

Wednesday, May 14, 2014

  Actual Average (KHRO) Record (KHRO)
Temperature  
Mean Temperature 46 °F 65 °F  
Max Temperature 50 °F 76 °F 96 °F (1911)
Min Temperature 42 °F 55 °F 34 °F (1910)
Degree Days  
Heating Degree Days 19 3  
Month to date heating degree days 49  
Since 1 July heating degree days 3970  
Cooling Degree Days 0 3  
Month to date cooling degree days 32  
Year to date cooling degree days 69  
Moisture  
Dew Point 45 °F    
Average Humidity 93    
Maximum Humidity 100    
Minimum Humidity 87    
Precipitation  
Precipitation 0.41 in 0.16 in 2.64 in (1956)
Month to date precipitation 2.30  
Year to date precipitation 15.61  
Snow  
Snow 0.00 in 0.00 in - ()
Month to date snowfall 0.0  
Since 1 July snowfall 11.5  
Snow Depth -    
Sea Level Pressure  
Sea Level Pressure 30.19 in    
Wind  
Wind Speed 5 mph (NNW)    
Max Wind Speed 14 mph    
Max Gust Speed 22 mph    
Visibility 7 miles    
Events Fog , Rain    
T = Trace of Precipitation, MM = Missing Value Source: NWS Daily Summary

Daily Weather History Graph

Daily Weather History Graph

Search for Another Location

Airport:

Trip Planner

Search our weather history database for the weather conditions in past years. The results will help you decide how hot, cold, wet, or windy it might be!

Date:

Astronomy

May. 14, 2014 Rise Set
Actual Time 6:07 AM CDT 8:13 PM CDT
Civil Twilight 5:38 AM CDT 8:42 PM CDT
Nautical Twilight 5:03 AM CDT 9:17 PM CDT
Astronomical Twilight 4:25 AM CDT 9:55 PM CDT
Moon 8:20 PM CDT (5/14) 6:04 AM CDT (5/14)
Length of Visible Light 15h 03m
Length of Day
14h 06m
Full, 100% of the Moon is Illuminated
May 14
Full
May 14
Full
May 21
Last Quarter
May 28
New
Jun 5
First Quarter

Hourly Weather History & Observations

Time (CDT) Temp. Windchill Dew Point Humidity Pressure Visibility Wind Dir Wind Speed Gust Speed Precip Events Conditions
12:15 AM 50.0 °F - 48.2 °F 94% 30.23 in 6.0 mi West 3.5 mph - N/A   Mostly Cloudy
12:35 AM 50.0 °F - 48.2 °F 94% 30.23 in 10.0 mi WNW 3.5 mph - N/A   Partly Cloudy
12:55 AM 50.0 °F - 48.2 °F 94% 30.22 in 10.0 mi North 4.6 mph - N/A   Clear
1:15 AM 48.2 °F - 48.2 °F 100% 30.22 in 9.0 mi Calm Calm - N/A   Clear
1:35 AM 48.2 °F - 46.4 °F 93% 30.22 in 10.0 mi North 4.6 mph - N/A   Clear
1:55 AM 48.2 °F - 46.4 °F 93% 30.21 in 10.0 mi NNE 3.5 mph - N/A   Clear
2:15 AM 48.2 °F - 46.4 °F 93% 30.21 in 9.0 mi NNW 4.6 mph - N/A   Clear
2:35 AM 48.2 °F - 46.4 °F 93% 30.20 in 10.0 mi North 4.6 mph - N/A   Clear
2:55 AM 48.2 °F - 46.4 °F 93% 30.20 in 10.0 mi North 4.6 mph - N/A   Clear
3:15 AM 48.2 °F - 46.4 °F 93% 30.19 in 10.0 mi North 4.6 mph - N/A   Partly Cloudy
3:35 AM 48.2 °F - 46.4 °F 93% 30.18 in 10.0 mi NE 6.9 mph - N/A   Partly Cloudy
3:55 AM 48.2 °F - 46.4 °F 93% 30.18 in 10.0 mi NNE 5.8 mph - N/A   Scattered Clouds
4:15 AM 48.2 °F - 46.4 °F 93% 30.17 in 10.0 mi North 5.8 mph - N/A   Mostly Cloudy
4:35 AM 48.2 °F - 46.4 °F 93% 30.15 in 10.0 mi NNE 9.2 mph - N/A   Mostly Cloudy
4:55 AM 48.2 °F - 46.4 °F 93% 30.15 in 10.0 mi NNE 8.1 mph - N/A   Overcast
5:15 AM 48.2 °F - 44.6 °F 87% 30.18 in 10.0 mi WNW 4.6 mph - N/A   Overcast
5:35 AM 48.2 °F - 46.4 °F 93% 30.20 in 10.0 mi West 4.6 mph - N/A   Overcast
5:55 AM 48.2 °F - 46.4 °F 93% 30.21 in 10.0 mi West 3.5 mph - N/A   Overcast
6:15 AM 48.2 °F - 46.4 °F 93% 30.20 in 10.0 mi Calm Calm - N/A   Overcast
6:35 AM 48.2 °F - 46.4 °F 93% 30.19 in 10.0 mi NNW 3.5 mph - N/A   Overcast
6:55 AM 48.2 °F - 46.4 °F 93% 30.20 in 10.0 mi WNW 3.5 mph - N/A   Overcast
7:15 AM 48.2 °F - 46.4 °F 93% 30.21 in 3.0 mi NNW 5.8 mph - 0.02 in Rain Rain
7:35 AM 48.2 °F - 46.4 °F 93% 30.22 in 3.0 mi NNW 4.6 mph - 0.05 in Rain Light Rain
7:55 AM 48.2 °F - 46.4 °F 93% 30.21 in 2.5 mi North 8.1 mph - 0.08 in Rain Light Rain
8:15 AM 46.4 °F 41.9 °F 44.6 °F 93% 30.20 in 2.5 mi North 9.2 mph - 0.02 in Rain Light Rain
8:35 AM 46.4 °F 42.4 °F 44.6 °F 93% 30.21 in 3.0 mi NNW 8.1 mph - 0.04 in Rain Light Rain
8:55 AM 46.4 °F 41.5 °F 44.6 °F 93% 30.20 in 3.0 mi North 10.4 mph 17.3 mph 0.06 in Rain Light Rain
9:15 AM 46.4 °F 40.7 °F 44.6 °F 93% 30.19 in 4.0 mi NNE 12.7 mph 20.7 mph N/A Rain Light Rain
9:35 AM 46.4 °F 40.4 °F 44.6 °F 93% 30.18 in 7.0 mi North 13.8 mph 21.9 mph 0.01 in Rain Light Rain
9:55 AM 46.4 °F 41.9 °F 44.6 °F 93% 30.20 in 5.0 mi North 9.2 mph - 0.02 in Rain Light Rain
10:15 AM 46.4 °F 44.3 °F 44.6 °F 93% 30.21 in 4.0 mi NNE 4.6 mph - 0.01 in Rain Light Rain
10:35 AM 46.4 °F 41.9 °F 42.8 °F 87% 30.21 in 5.0 mi NNE 9.2 mph - 0.02 in Rain Light Rain
10:55 AM 46.4 °F 42.9 °F 42.8 °F 87% 30.21 in 3.0 mi North 6.9 mph - 0.03 in Rain Light Rain
11:15 AM 46.4 °F 43.5 °F 44.6 °F 93% 30.21 in 3.0 mi North 5.8 mph - 0.01 in Rain Light Rain
11:55 AM 46.4 °F 43.5 °F 44.6 °F 93% 30.20 in 5.0 mi North 5.8 mph - 0.04 in Rain Light Rain
12:35 PM 44.6 °F 39.7 °F 42.8 °F 93% 30.21 in 3.0 mi North 9.2 mph - 0.01 in Rain Light Rain
12:55 PM 44.6 °F 41.4 °F 44.6 °F 100% 30.19 in 2.0 mi North 5.8 mph - 0.04 in Rain Rain
1:15 PM 46.4 °F 42.9 °F 44.6 °F 93% 30.17 in 1.8 mi North 6.9 mph - 0.02 in Rain Light Rain
1:35 PM 44.6 °F 40.2 °F 42.8 °F 93% 30.18 in 2.5 mi North 8.1 mph - 0.04 in Rain Light Rain
1:55 PM 46.4 °F 41.5 °F 44.6 °F 93% 30.16 in 6.0 mi NNE 10.4 mph - 0.04 in Rain Light Rain
2:15 PM 46.4 °F 40.7 °F 42.8 °F 87% 30.17 in 10.0 mi North 12.7 mph 18.4 mph N/A   Mostly Cloudy
2:35 PM 46.4 °F 43.5 °F 42.8 °F 87% 30.18 in 9.0 mi NW 5.8 mph - N/A Rain Light Rain
2:55 PM 46.4 °F 43.5 °F 42.8 °F 87% 30.18 in 3.0 mi WNW 5.8 mph - 0.01 in Rain Light Rain
3:15 PM 46.4 °F 43.5 °F 44.6 °F 93% 30.18 in 1.8 mi WNW 5.8 mph - 0.02 in Rain Light Rain
3:35 PM 46.4 °F 43.5 °F 44.6 °F 93% 30.18 in 2.5 mi WNW 5.8 mph - 0.04 in Rain Light Rain
3:55 PM 46.4 °F 43.5 °F 44.6 °F 93% 30.18 in 2.5 mi NNW 5.8 mph - 0.06 in Rain Light Rain
4:15 PM 46.4 °F 44.3 °F 44.6 °F 93% 30.17 in 3.0 mi NW 4.6 mph - 0.01 in Rain Light Rain
4:35 PM 46.4 °F 44.3 °F 44.6 °F 93% 30.17 in 3.0 mi NW 4.6 mph - 0.03 in Rain Light Rain
5:15 PM 46.4 °F 42.9 °F 42.8 °F 87% 30.16 in 10.0 mi North 6.9 mph - N/A   Partly Cloudy
5:35 PM 46.4 °F 43.5 °F 42.8 °F 87% 30.17 in 10.0 mi NNW 5.8 mph - N/A   Scattered Clouds
5:55 PM 46.4 °F 45.2 °F 42.8 °F 87% 30.17 in 10.0 mi North 3.5 mph - N/A   Mostly Cloudy
6:15 PM 46.4 °F 44.3 °F 42.8 °F 87% 30.16 in 10.0 mi North 4.6 mph - N/A   Overcast
6:35 PM 46.4 °F 44.3 °F 42.8 °F 87% 30.16 in 10.0 mi North 4.6 mph - N/A   Mostly Cloudy
6:55 PM 46.4 °F 45.2 °F 42.8 °F 87% 30.16 in 10.0 mi NW 3.5 mph - N/A   Overcast
7:15 PM 46.4 °F - 42.8 °F 87% 30.16 in 10.0 mi Calm Calm - N/A   Mostly Cloudy
7:35 PM 46.4 °F 45.2 °F 44.6 °F 93% 30.16 in 10.0 mi SW 3.5 mph - N/A   Mostly Cloudy
7:55 PM 46.4 °F - 44.6 °F 93% 30.17 in 10.0 mi Calm Calm - N/A   Mostly Cloudy
8:15 PM 46.4 °F - 44.6 °F 93% 30.17 in 10.0 mi Calm Calm - N/A   Overcast
8:35 PM 46.4 °F - 44.6 °F 93% 30.17 in 2.5 mi Calm Calm - N/A   Overcast
8:55 PM 44.6 °F - 44.6 °F 100% 30.17 in 3.0 mi Calm Calm - N/A   Overcast
9:15 PM 44.6 °F - 44.6 °F 100% 30.18 in 10.0 mi Calm Calm - N/A   Mostly Cloudy
9:35 PM 44.6 °F - 44.6 °F 100% 30.18 in 9.0 mi Calm Calm - N/A   Overcast
9:55 PM 46.4 °F - 44.6 °F 93% 30.18 in 10.0 mi Calm Calm - N/A   Scattered Clouds
10:15 PM 44.6 °F - 44.6 °F 100% 30.19 in 0.2 mi Calm Calm - N/A Fog Fog
10:35 PM 44.6 °F - 44.6 °F 100% 30.18 in 3.0 mi Calm Calm - N/A   Scattered Clouds
11:15 PM 44.6 °F - 44.6 °F 100% 30.17 in 5.0 mi Calm Calm - N/A   Clear
11:35 PM 42.8 °F - 42.8 °F 100% 30.17 in 0.2 mi Calm Calm - N/A Fog Fog
11:55 PM 42.8 °F - 42.8 °F 100% 30.16 in 0.2 mi Calm Calm - N/A Fog Fog